Starlink 6185

operational
NORAD ID: 56901 Int'l Des: 2023-083 Owner: SPXS Country: US Constellation: starlink
LEOCIRCULAR

Starlink 6185について

説明を読み込み中...

リアルタイム位置

3D地球を読み込み中...

次回通過

高度履歴

Altitude vs Time

uPlot chart will show altitude changes over time

軌道要素

1 56901U 23083AB 26062.16668981 .00052240 00000-0 34407-2 0 9991
2 56901 43.0009 116.7391 0002189 266.3184 133.8644 15.06767878 5826
Epoch: Mar 3, 2026 • Age: 13 hours

現在のステータス

高度 556.9 km
速度 7.58 km/s
衛星直下点 -40.85°S, 50.41°E
打ち上げ日 Jun 12, 2023
運用期間 2.7 years
タイプ internet

技術仕様

分類 Payload
質量 305.00 kg
乾燥質量 290.00 kg
総質量 305.00 kg
長さ 0.20 m
直径 2.80 m
スパン 9.00 m
形状 Box + pan
製造者 SPXS
バスタイプ Starlink
フェーズステータス In Orbit
所有者/国 SPXS/US

大規模コンステレーション

Loading constellations...